Theta_e
296 297 296 295 295 295 292 292 287 292 293 298 301 300 303 305 305 307 309 310 312 313 316 318 319 328 333 334 340 339 337 335 335 337 338 336 330 330 331 330 329 328 326 325
291 296 295 294 294 294 295 295 293 296 294 301 301 303 301 303 304 305 307 308 310 313 315 317 318 315 331 334 338 337 335 334 332 332 330 330 327 329 324 327 327 326 326 323
288 294 294 288 295 295 295 298 296 291 298 302 300 300 301 302 304 304 306 308 310 312 315 319 321 321 320 332 336 335 333 332 329 327 327 325 325 323 321 322 326 324 327 325
287 291 281 295 300 298 297 298 300 299 299 301 301 302 302 305 304 305 305 306 308 313 316 319 323 324 322 333 331 335 334 329 328 326 322 321 319 319 319 322 323 321 325 325
286 287 291 293 296 295 295 295 299 299 300 301 303 302 302 305 304 303 305 308 309 313 317 321 323 326 327 332 331 332 332 327 328 326 321 318 317 320 319 321 321 324 324 324
289 282 281 294 298 301 301 290 302 300 299 300 302 293 299 305 306 305 304 307 310 313 317 321 325 327 330 333 330 329 330 324 329 326 322 318 320 317 319 321 320 323 322 324
287 285 291 299 300 302 288 293 303 303 303 303 298 300 305 306 304 304 305 308 312 314 316 322 327 328 331 330 327 328 327 325 326 325 324 321 318 318 317 317 323 322 322 321
291 287 285 302 300 294 300 305 305 305 305 303 303 303 302 301 301 303 304 309 313 315 319 324 327 328 328 327 329 325 324 323 322 323 321 316 316 314 315 318 318 320 320 318
294 293 303 305 304 306 307 305 306 304 304 304 303 299 299 300 301 304 306 310 313 315 319 324 328 328 325 327 326 324 322 321 320 321 318 315 315 316 314 315 316 316 317 317
295 299 300 303 306 307 308 307 307 306 306 304 300 298 298 300 301 302 305 308 311 314 319 324 325 324 328 326 324 321 319 317 314 314 313 313 314 312 312 313 312 313 315 315
294 299 300 303 304 306 308 308 306 306 305 301 298 297 298 299 300 303 305 308 311 318 321 323 326 323 321 321 320 317 316 313 312 312 311 310 310 312 313 314 315 317 317 317
294 300 299 302 306 307 306 305 305 303 300 299 297 297 298 299 301 304 306 311 317 322 323 323 323 319 319 320 318 314 312 311 309 310 309 305 306 301 292 296 295 297 302 311
297 303 303 305 308 308 303 303 303 299 298 295 297 298 298 299 302 304 311 319 320 321 323 323 321 320 318 318 317 314 311 311 310 308 306 303 303 301 296 294 291 291 293 295
303 304 303 302 303 305 303 300 299 299 296 297 297 298 298 299 303 312 315 316 322 324 321 318 318 317 317 318 316 314 312 306 309 307 308 306 306 303 300 298 298 296 292 295
304 302 301 303 303 301 300 298 295 293 294 295 296 296 298 299 302 312 312 315 319 318 317 316 315 315 317 316 315 314 311 310 310 310 310 309 306 302 301 302 300 299 297 294
301 301 302 299 297 296 295 295 292 291 292 293 293 294 296 299 304 311 312 313 312 312 314 315 314 315 316 315 313 311 311 303 306 309 307 307 306 303 303 302 301 299 301 297
295 296 296 294 294 292 292 292 291 291 291 292 292 294 297 307 307 307 308 309 308 309 311 311 311 314 314 313 312 310 308 307 300 308 307 306 306 307 305 303 302 302 300 298
297 295 295 292 290 290 289 290 290 290 290 292 293 294 296 298 298 300 302 306 307 305 306 307 308 309 309 308 307 308 308 307 308 308 308 308 308 307 305 304 304 303 301 297
294 293 293 291 290 289 289 288 289 290 290 291 291 291 292 294 295 296 297 297 298 302 303 304 299 303 304 302 305 306 306 307 308 309 309 301 306 306 306 304 303 302 300 299
294 293 292 290 290 289 288 289 290 288 289 289 290 289 288 288 292 295 296 292 292 296 303 302 303 302 302 300 299 305 305 305 305 307 307 310 308 305 305 300 303 301 300 300
293 292 290 290 289 289 288 289 289 288 289 288 287 286 287 287 288 290 290 290 291 292 299 299 302 303 302 301 303 305 305 305 304 307 307 307 306 306 303 302 301 299 298 301
293 292 291 290 289 288 288 288 288 288 288 287 287 286 286 286 288 290 289 286 290 288 295 297 299 293 297 294 303 302 302 302 304 309 309 307 307 306 305 302 299 297 298 302
293 293 292 290 289 289 288 287 287 287 286 285 285 285 285 285 285 286 286 288 291 289 293 292 289 290 292 303 302 301 301 301 301 303 306 307 307 306 305 302 301 300 301 303
296 294 293 293 291 289 287 288 288 287 287 286 285 285 285 285 286 287 289 288 287 290 290 289 290 289 294 304 303 302 301 301 300 300 301 297 305 305 306 305 305 305 303 301
296 295 294 294 294 292 291 291 290 290 289 287 287 288 287 288 286 286 288 289 288 290 292 289 289 290 298 302 304 304 303 302 302 301 300 301 303 304 305 304 304 304 302 302
297 296 295 295 294 294 294 294 292 292 292 290 290 291 291 291 291 290 290 288 289 289 291 292 291 294 295 295 297 299 300 301 302 302 301 302 302 302 302 301 300 299 300 300
296 293 296 296 296 295 295 293 294 292 292 292 290 291 292 292 291 291 289 290 289 289 290 291 291 290 292 293 294 296 297 297 295 301 301 300 300 300 299 297 296 296 296 297
Wind_Speed
20 22 22 25 26 24 22 20 19 22 26 21 19 16 17 21 20 22 18 16 15 14 14 14 9 12 16 16 17 14 14 15 15 16 14 17 15 16 16 17 14 14 14 14
19 21 23 25 25 25 23 20 19 16 21 17 7 16 15 19 19 21 19 18 18 15 15 14 13 6 13 15 15 14 14 14 14 15 14 16 17 17 15 16 15 15 16 15
14 15 19 19 12 6 11 12 10 15 19 21 16 16 17 21 21 24 21 14 16 15 15 13 14 6 11 15 13 14 12 14 15 15 16 18 17 17 16 16 14 13 14 16
4 9 8 2 6 8 12 15 16 20 20 16 14 16 21 19 21 17 11 14 17 16 15 14 15 12 7 13 13 14 15 15 16 18 17 17 18 16 14 15 14 13 15 16
5 8 18 20 3 6 9 16 21 16 12 17 21 21 19 8 8 17 22 20 17 16 18 15 15 13 9 14 15 15 17 17 19 19 19 18 19 19 15 14 13 12 14 15
4 7 8 1 4 2 6 15 8 8 15 22 21 17 15 15 18 22 20 18 19 18 17 16 15 14 13 18 17 17 15 18 20 20 20 19 17 19 18 14 13 14 16 14
13 10 11 11 4 4 8 9 17 21 22 23 19 17 25 20 19 18 18 21 20 18 16 17 13 12 12 13 16 14 15 16 17 17 19 18 17 14 15 13 13 14 15 14
9 11 10 8 7 7 13 21 22 22 22 20 19 23 19 18 18 21 20 20 18 16 14 14 12 7 13 15 15 15 15 16 17 17 15 14 18 16 15 13 13 14 13 14
9 6 12 12 19 22 21 23 21 21 18 19 22 18 19 18 20 17 17 17 15 14 14 13 10 10 9 11 17 18 17 15 15 17 16 16 18 17 15 16 11 11 12 13
17 15 17 17 23 22 17 16 18 19 19 20 17 18 21 17 16 15 17 16 13 15 12 11 5 5 9 12 15 17 17 17 15 15 14 15 12 11 11 13 13 10 12 13
18 24 20 23 15 13 15 17 21 18 19 18 15 18 19 17 17 16 15 14 14 15 9 8 10 9 10 13 14 15 15 15 16 14 15 13 11 10 13 9 10 13 13 13
19 23 19 23 20 16 20 19 17 20 18 16 15 17 18 17 16 16 15 16 15 12 9 7 9 13 14 17 17 16 14 13 12 13 13 12 12 9 20 13 14 9 10 9
17 23 22 23 19 16 11 17 18 16 14 17 17 15 17 15 17 20 18 10 9 8 9 10 12 14 14 17 17 18 16 16 13 14 13 14 12 12 10 14 21 16 12 13
18 20 18 15 10 13 13 16 15 14 13 14 15 16 14 14 16 12 7 7 7 8 11 11 12 11 12 12 15 16 16 20 14 14 13 13 12 12 12 12 10 6 10 8
14 4 9 12 13 13 13 13 14 12 13 15 14 14 14 16 13 9 8 6 3 6 9 12 12 11 13 14 14 15 14 13 13 14 13 15 13 13 12 12 12 11 10 10
7 8 7 10 11 12 14 13 12 13 14 15 14 15 16 14 11 4 5 6 3 5 6 8 10 11 13 14 14 12 12 14 13 13 13 14 13 13 15 13 13 11 11 11
8 8 11 10 12 13 13 12 10 12 13 14 15 16 15 6 6 7 8 9 9 9 8 7 7 10 13 13 14 10 10 11 11 12 13 14 14 14 13 14 14 11 12 12
8 7 8 9 10 11 12 12 11 13 13 14 13 11 10 9 8 9 10 8 10 11 10 8 9 9 10 12 11 11 12 12 12 12 11 12 14 14 15 16 16 14 13 13
9 9 9 9 9 10 10 11 12 11 12 11 10 9 9 9 9 9 9 12 11 10 7 8 12 9 10 9 10 10 11 12 11 11 12 13 15 15 15 15 15 14 14 15
9 9 9 10 11 11 11 11 12 10 11 11 10 10 10 11 10 10 10 12 10 5 7 8 9 9 9 9 9 8 11 12 13 11 11 14 14 13 13 13 16 14 13 13
8 10 10 11 10 11 11 11 11 11 12 14 13 11 10 12 14 12 14 9 13 12 8 8 8 7 6 7 8 8 10 11 11 12 14 12 13 14 14 15 14 14 13 11
7 9 9 10 10 9 11 11 12 12 14 14 13 14 16 15 10 13 13 9 8 12 8 8 7 7 7 7 8 10 11 10 8 11 12 13 13 13 14 12 13 11 11 10
6 7 8 9 9 8 9 11 12 12 13 13 14 15 11 9 10 13 12 15 9 11 9 8 8 10 10 9 8 9 10 11 9 7 8 9 10 10 11 12 11 11 11 12
8 6 7 6 8 9 10 9 8 10 11 12 13 13 11 9 11 9 7 11 15 12 12 10 12 12 10 8 8 9 9 9 9 8 6 6 9 10 11 13 13 13 12 12
7 7 5 5 6 7 8 7 8 9 10 10 10 10 11 8 7 7 9 10 17 13 12 16 17 15 10 8 8 8 7 7 8 8 8 7 6 6 9 10 11 11 12 11
5 6 6 7 5 4 5 6 7 7 7 8 8 8 8 8 8 8 9 11 11 13 11 11 11 10 10 9 8 8 6 6 7 6 7 7 9 9 8 8 8 9 8 8
6 1 5 5 6 7 6 6 6 7 7 8 8 8 8 9 9 9 10 9 9 9 9 9 10 10 9 9 9 8 7 6 6 6 6 6 5 6 7 7 7 6 5 5
Wind_Direction
260 274 287 281 282 283 275 263 254 280 285 293 304 308 296 303 299 293 304 310 304 301 296 303 326 290 234 222 184 185 172 156 158 158 147 143 140 139 151 159 154 164 170 168
282 286 281 280 284 280 270 271 271 283 288 275 310 309 296 299 300 294 298 306 301 299 298 302 307 316 244 225 199 179 161 161 141 141 146 140 137 148 154 152 162 156 172 172
265 285 310 288 266 241 276 255 255 264 295 303 310 285 312 306 303 296 296 344 328 315 301 296 300 292 298 221 199 184 159 155 155 144 146 146 144 151 152 150 159 152 167 166
286 300 244 356 254 264 282 283 275 278 299 321 299 282 282 314 303 298 316 314 309 302 300 299 296 290 275 217 197 188 176 161 160 153 147 147 144 147 149 150 162 156 166 166
252 261 283 284 303 214 268 291 294 285 306 303 301 308 299 279 324 324 309 306 295 294 291 293 286 284 262 209 187 193 190 163 166 155 151 150 149 148 141 154 152 154 166 155
208 264 270 291 247 255 317 281 81 264 284 291 316 305 304 328 309 308 298 287 289 292 287 284 282 287 235 197 178 186 175 164 164 162 152 150 149 151 149 158 151 160 158 151
237 249 258 273 281 158 258 324 331 315 306 308 304 294 305 316 307 293 285 285 281 281 278 280 286 290 197 178 172 175 156 159 161 158 157 151 143 147 138 144 156 154 151 145
248 246 266 56 150 244 303 308 305 304 310 309 304 299 305 295 292 292 288 279 275 275 272 279 287 248 190 168 150 144 153 154 154 152 148 142 142 140 132 130 155 150 145 153
258 271 299 294 282 284 290 296 297 307 315 298 302 301 294 292 289 287 281 276 274 269 266 266 272 233 192 168 153 154 149 143 148 147 147 143 142 154 141 141 151 153 161 155
270 266 272 286 291 295 292 294 304 307 300 302 301 291 291 292 286 281 278 276 274 263 250 254 229 209 177 155 153 152 149 139 136 138 136 135 141 147 146 151 148 158 171 160
278 269 285 282 292 300 307 297 301 298 304 305 300 287 293 291 285 280 278 270 257 243 236 240 196 167 146 145 146 146 146 146 141 145 139 136 130 151 150 150 159 172 177 164
269 286 283 290 293 307 308 303 303 308 309 301 291 286 292 291 286 281 271 261 244 234 217 209 186 152 148 149 142 141 141 149 141 143 143 133 131 102 58 73 73 82 110 159
267 272 269 281 295 304 308 304 314 311 310 295 292 290 289 289 286 273 249 251 246 227 205 174 169 158 160 155 150 151 146 151 145 147 143 141 142 133 111 63 58 46 72 93
267 273 283 295 308 318 310 311 310 315 295 289 293 297 292 291 289 287 300 268 244 190 166 157 163 156 150 128 155 156 148 153 153 146 153 145 147 130 125 126 128 114 39 97
315 332 270 297 297 322 321 316 319 311 308 309 306 300 303 300 293 318 313 281 213 148 144 149 152 145 136 154 151 154 149 154 154 149 150 150 140 134 130 135 136 133 129 100
245 252 281 325 332 327 325 324 318 314 317 315 310 311 307 294 283 340 354 34 84 96 112 137 144 141 142 146 146 142 150 143 147 146 145 147 149 143 138 132 133 140 145 138
339 338 350 340 342 332 323 322 323 318 317 319 317 314 313 332 38 25 28 50 56 59 73 110 128 137 140 148 148 146 136 139 137 143 149 146 143 143 139 140 141 152 147 152
26 19 9 347 333 328 328 330 337 335 333 323 321 325 358 12 24 26 29 48 69 63 62 67 92 105 119 130 134 140 142 140 141 145 143 147 137 140 146 147 151 148 150 151
23 16 8 360 353 344 340 342 346 344 343 346 349 3 11 17 32 32 40 47 42 60 39 72 84 93 99 112 128 132 138 135 132 137 130 133 140 148 151 145 146 146 150 156
27 27 18 12 14 7 358 358 359 358 6 9 17 31 32 22 26 39 46 53 24 347 79 85 89 96 106 117 117 130 128 127 126 115 133 147 148 144 149 144 143 151 154 158
31 34 27 24 18 14 13 8 9 14 19 28 25 24 38 41 39 37 38 32 1 356 44 73 96 103 106 114 113 120 123 112 118 136 143 147 147 144 143 149 149 150 156 164
38 44 34 31 27 19 13 15 17 21 26 25 24 31 37 28 24 54 46 23 354 4 37 43 53 63 86 88 94 96 95 100 116 137 142 146 150 152 152 145 148 150 158 164
58 57 51 39 34 33 27 23 22 24 28 23 25 28 28 27 26 42 27 355 21 22 37 33 36 61 73 80 86 94 99 95 81 87 126 135 143 142 143 146 153 156 163 163
91 58 63 70 61 42 38 25 27 30 30 30 30 27 27 20 33 23 15 16 22 36 40 28 39 42 62 79 86 91 98 103 99 83 59 78 132 146 152 150 155 160 163 162
78 93 74 57 57 61 55 49 44 41 40 40 37 35 32 32 41 12 19 22 22 29 36 27 32 36 44 52 74 84 98 104 108 115 110 101 93 119 136 152 151 157 157 153
70 66 66 49 55 51 54 48 48 40 46 46 41 39 36 34 35 35 33 27 33 31 35 31 30 35 39 39 45 54 71 99 103 101 110 114 123 126 128 125 131 136 139 139
90 259 104 85 59 48 47 62 62 57 45 60 54 47 44 43 40 39 37 36 35 35 37 36 33 29 31 36 41 43 44 54 70 113 113 116 121 121 115 112 103 94 88 101